QPF
0.00 0.00 0.00 0.00 0.00 0.00 0.01 0.01 0.01 0.01 0.01 0.01 0.02 0.02 0.02 0.02 0.02 0.01 0.01 0.01 0.01 0.02 0.01 0.00 0.00 0.00 0.01 0.01 0.03 0.02 0.01 0.01 0.01 0.01 0.01 0.01 0.01 0.01 0.02 0.01 0.01 0.02 0.02 0.02
0.00 0.00 0.00 0.00 0.00 0.00 0.00 0.01 0.01 0.01 0.00 0.01 0.02 0.02 0.02 0.02 0.02 0.01 0.01 0.01 0.01 0.01 0.02 0.00 0.00 0.01 0.01 0.02 0.02 0.03 0.03 0.02 0.01 0.01 0.01 0.01 0.01 0.02 0.02 0.01 0.01 0.01 0.02 0.03
0.00 0.00 0.00 0.00 0.00 0.01 0.00 0.00 0.00 0.00 0.01 0.01 0.01 0.02 0.01 0.02 0.03 0.02 0.01 0.01 0.01 0.01 0.01 0.00 0.01 0.01 0.00 0.01 0.01 0.01 0.01 0.01 0.01 0.01 0.01 0.01 0.02 0.04 0.02 0.01 0.01 0.01 0.02 0.03
0.00 0.00 0.00 0.00 0.00 0.01 0.00 0.00 0.00 0.00 0.01 0.01 0.01 0.03 0.04 0.03 0.02 0.01 0.01 0.01 0.00 0.01 0.00 0.00 0.00 0.00 0.01 0.00 0.01 0.01 0.01 0.00 0.01 0.02 0.01 0.01 0.02 0.03 0.01 0.01 0.01 0.01 0.01 0.03
0.00 0.00 0.00 0.00 0.00 0.00 0.00 0.00 0.00 0.00 0.01 0.01 0.02 0.04 0.07 0.04 0.02 0.01 0.01 0.01 0.00 0.00 0.00 0.00 0.01 0.01 0.00 0.00 0.01 0.01 0.01 0.01 0.02 0.02 0.01 0.00 0.01 0.03 0.02 0.01 0.02 0.02 0.01 0.02
0.00 0.00 0.00 0.00 0.00 0.00 0.00 0.00 0.00 0.00 0.01 0.02 0.02 0.03 0.04 0.03 0.02 0.02 0.01 0.00 0.00 0.00 0.00 0.00 0.01 0.01 0.01 0.01 0.01 0.01 0.02 0.02 0.02 0.02 0.02 0.01 0.01 0.02 0.01 0.01 0.01 0.01 0.02 0.02
0.00 0.00 0.00 0.00 0.00 0.00 0.00 0.01 0.01 0.01 0.01 0.02 0.01 0.01 0.02 0.02 0.01 0.01 0.00 0.00 0.00 0.00 0.00 0.01 0.01 0.00 0.01 0.01 0.01 0.01 0.02 0.02 0.02 0.01 0.01 0.01 0.01 0.02 0.02 0.02 0.01 0.02 0.02 0.02
0.00 0.00 0.00 0.00 0.00 0.00 0.00 0.01 0.01 0.01 0.01 0.01 0.01 0.01 0.01 0.01 0.01 0.01 0.00 0.00 0.00 0.00 0.00 0.00 0.00 0.01 0.01 0.01 0.02 0.02 0.02 0.02 0.01 0.01 0.01 0.02 0.02 0.02 0.02 0.02 0.01 0.02 0.02 0.02
0.00 0.00 0.00 0.00 0.00 0.01 0.01 0.01 0.01 0.01 0.01 0.00 0.00 0.01 0.01 0.01 0.00 0.00 0.01 0.00 0.00 0.00 0.00 0.00 0.00 0.00 0.01 0.01 0.01 0.02 0.02 0.02 0.02 0.01 0.01 0.02 0.02 0.01 0.01 0.01 0.01 0.02 0.01 0.01
0.00 0.00 0.00 0.00 0.00 0.01 0.01 0.01 0.01 0.01 0.01 0.01 0.00 0.00 0.01 0.01 0.01 0.01 0.00 0.00 0.00 0.01 0.01 0.01 0.01 0.01 0.01 0.01 0.01 0.01 0.02 0.02 0.02 0.02 0.02 0.01 0.01 0.01 0.01 0.01 0.01 0.02 0.01 0.01
0.01 0.01 0.00 0.00 0.00 0.00 0.01 0.01 0.01 0.01 0.01 0.01 0.01 0.00 0.00 0.00 0.01 0.01 0.01 0.01 0.01 0.01 0.01 0.01 0.01 0.01 0.01 0.01 0.01 0.01 0.01 0.01 0.01 0.01 0.01 0.01 0.01 0.01 0.01 0.01 0.02 0.02 0.01 0.01
0.01 0.01 0.01 0.00 0.00 0.00 0.00 0.01 0.01 0.01 0.02 0.01 0.01 0.01 0.00 0.00 0.00 0.01 0.01 0.01 0.01 0.01 0.01 0.01 0.02 0.02 0.02 0.01 0.02 0.02 0.01 0.01 0.01 0.00 0.01 0.01 0.01 0.01 0.00 0.01 0.01 0.01 0.01 0.01
0.01 0.01 0.01 0.00 0.00 0.00 0.00 0.00 0.00 0.01 0.01 0.02 0.02 0.01 0.00 0.00 0.00 0.01 0.01 0.02 0.02 0.02 0.02 0.01 0.01 0.02 0.02 0.02 0.02 0.02 0.03 0.02 0.01 0.01 0.01 0.01 0.01 0.01 0.01 0.01 0.01 0.01 0.01 0.01
0.01 0.01 0.01 0.01 0.01 0.01 0.01 0.01 0.01 0.01 0.01 0.01 0.01 0.01 0.00 0.00 0.00 0.01 0.01 0.02 0.02 0.03 0.03 0.03 0.03 0.03 0.02 0.02 0.02 0.02 0.03 0.03 0.02 0.02 0.01 0.01 0.01 0.01 0.01 0.01 0.01 0.01 0.01 0.01
0.01 0.00 0.00 0.00 0.00 0.00 0.00 0.00 0.00 0.01 0.01 0.01 0.00 0.01 0.01 0.00 0.00 0.01 0.01 0.01 0.02 0.03 0.03 0.03 0.04 0.04 0.03 0.03 0.02 0.02 0.02 0.03 0.02 0.01 0.01 0.01 0.01 0.01 0.01 0.02 0.02 0.02 0.02 0.01
0.01 0.00 0.00 0.00 0.00 0.00 0.00 0.00 0.00 0.00 0.01 0.00 0.00 0.01 0.00 0.00 0.01 0.01 0.01 0.02 0.03 0.02 0.02 0.02 0.03 0.04 0.05 0.04 0.03 0.03 0.02 0.02 0.02 0.01 0.01 0.01 0.01 0.01 0.02 0.02 0.02 0.02 0.02 0.03
0.00 0.00 0.01 0.01 0.00 0.00 0.00 0.00 0.00 0.00 0.00 0.00 0.01 0.01 0.00 0.01 0.01 0.01 0.01 0.01 0.02 0.03 0.03 0.02 0.02 0.03 0.04 0.05 0.05 0.04 0.03 0.03 0.01 0.01 0.01 0.01 0.01 0.02 0.01 0.02 0.02 0.02 0.03 0.03
0.00 0.01 0.01 0.01 0.01 0.01 0.00 0.00 0.00 0.00 0.01 0.01 0.01 0.01 0.01 0.01 0.01 0.01 0.01 0.01 0.01 0.02 0.03 0.03 0.02 0.02 0.03 0.04 0.05 0.05 0.04 0.03 0.02 0.02 0.02 0.01 0.02 0.02 0.01 0.01 0.02 0.02 0.02 0.02
0.00 0.01 0.01 0.01 0.02 0.01 0.00 0.00 0.00 0.00 0.01 0.00 0.00 0.00 0.00 0.01 0.02 0.02 0.01 0.01 0.01 0.02 0.02 0.02 0.02 0.02 0.02 0.03 0.04 0.04 0.05 0.05 0.04 0.03 0.03 0.02 0.01 0.01 0.01 0.01 0.01 0.02 0.02 0.01
0.00 0.01 0.01 0.01 0.01 0.02 0.00 0.00 0.00 0.00 0.01 0.00 0.00 0.00 0.00 0.01 0.02 0.01 0.01 0.01 0.01 0.01 0.01 0.01 0.02 0.01 0.02 0.02 0.03 0.03 0.04 0.05 0.05 0.04 0.04 0.02 0.01 0.01 0.01 0.01 0.01 0.02 0.02 0.02
0.01 0.01 0.01 0.02 0.02 0.02 0.01 0.00 0.01 0.01 0.01 0.00 0.00 0.01 0.01 0.01 0.02 0.01 0.01 0.01 0.01 0.01 0.01 0.01 0.01 0.02 0.02 0.02 0.02 0.02 0.03 0.03 0.03 0.04 0.04 0.03 0.02 0.02 0.02 0.02 0.02 0.02 0.02 0.02
0.01 0.01 0.01 0.02 0.03 0.02 0.01 0.01 0.01 0.01 0.00 0.00 0.00 0.01 0.01 0.01 0.01 0.01 0.01 0.00 0.01 0.01 0.01 0.01 0.01 0.02 0.02 0.02 0.02 0.02 0.02 0.03 0.03 0.04 0.04 0.04 0.04 0.04 0.03 0.03 0.03 0.02 0.02 0.01
0.00 0.01 0.01 0.01 0.01 0.01 0.01 0.01 0.01 0.01 0.01 0.01 0.01 0.01 0.02 0.01 0.01 0.01 0.00 0.00 0.00 0.00 0.01 0.01 0.02 0.03 0.03 0.02 0.02 0.02 0.02 0.02 0.03 0.04 0.05 0.05 0.06 0.06 0.05 0.04 0.04 0.03 0.02 0.02
0.01 0.01 0.01 0.01 0.01 0.01 0.01 0.01 0.00 0.01 0.01 0.02 0.02 0.01 0.02 0.01 0.01 0.00 0.00 0.00 0.00 0.00 0.00 0.01 0.02 0.02 0.03 0.03 0.02 0.02 0.02 0.02 0.02 0.03 0.04 0.05 0.05 0.08 0.08 0.05 0.04 0.03 0.02 0.02
0.01 0.01 0.01 0.01 0.00 0.00 0.00 0.00 0.00 0.00 0.01 0.01 0.01 0.01 0.01 0.01 0.01 0.00 0.00 0.00 0.01 0.00 0.00 0.00 0.01 0.02 0.03 0.03 0.02 0.02 0.02 0.02 0.03 0.02 0.03 0.04 0.05 0.06 0.07 0.06 0.05 0.04 0.03 0.03
0.01 0.01 0.02 0.01 0.00 0.00 0.00 0.00 0.00 0.00 0.01 0.01 0.01 0.01 0.01 0.01 0.00 0.00 0.00 0.00 0.00 0.00 0.00 0.00 0.00 0.01 0.01 0.02 0.02 0.02 0.02 0.02 0.02 0.03 0.03 0.04 0.05 0.06 0.06 0.05 0.05 0.04 0.04 0.03
MSLP
1016.42 1017.24 1018.00 1018.67 1019.23 1019.70 1020.10 1020.46 1020.78 1021.10 1021.40 1021.69 1021.95 1022.19 1022.40 1022.58 1022.75 1022.91 1023.08 1023.26 1023.43 1023.59 1023.72 1023.80 1023.81 1023.75 1023.63 1023.46 1023.26 1023.07 1022.92 1022.84 1022.84 1022.91 1023.04 1023.22 1023.40 1023.54 1023.63 1023.63 1023.53 1023.34 1023.07 1022.73
1017.00 1017.68 1018.29 1018.82 1019.27 1019.67 1020.02 1020.35 1020.68 1020.99 1021.27 1021.51 1021.71 1021.85 1021.96 1022.06 1022.17 1022.32 1022.52 1022.78 1023.09 1023.41 1023.71 1023.95 1024.10 1024.15 1024.10 1023.96 1023.78 1023.60 1023.45 1023.38 1023.39 1023.48 1023.64 1023.82 1024.00 1024.14 1024.20 1024.17 1024.04 1023.82 1023.54 1023.22
1017.46 1018.00 1018.47 1018.87 1019.23 1019.58 1019.91 1020.25 1020.58 1020.88 1021.13 1021.31 1021.41 1021.44 1021.42 1021.41 1021.44 1021.57 1021.80 1022.16 1022.60 1023.09 1023.58 1024.00 1024.31 1024.48 1024.52 1024.44 1024.30 1024.13 1023.99 1023.92 1023.94 1024.04 1024.20 1024.38 1024.55 1024.66 1024.69 1024.63 1024.48 1024.25 1023.98 1023.69
1017.76 1018.15 1018.50 1018.82 1019.13 1019.45 1019.80 1020.16 1020.51 1020.81 1021.02 1021.12 1021.10 1020.99 1020.83 1020.68 1020.62 1020.70 1020.96 1021.39 1021.96 1022.63 1023.30 1023.90 1024.38 1024.69 1024.84 1024.84 1024.74 1024.61 1024.49 1024.43 1024.45 1024.55 1024.71 1024.88 1025.03 1025.12 1025.13 1025.05 1024.89 1024.68 1024.44 1024.18
1017.87 1018.15 1018.40 1018.66 1018.96 1019.30 1019.69 1020.10 1020.49 1020.79 1020.96 1020.97 1020.82 1020.55 1020.23 1019.93 1019.76 1019.78 1020.04 1020.53 1021.21 1022.03 1022.87 1023.65 1024.29 1024.75 1025.01 1025.10 1025.07 1024.98 1024.90 1024.86 1024.90 1025.00 1025.15 1025.32 1025.46 1025.54 1025.54 1025.46 1025.32 1025.13 1024.93 1024.72
1017.80 1017.98 1018.18 1018.42 1018.73 1019.13 1019.59 1020.06 1020.49 1020.80 1020.93 1020.85 1020.58 1020.15 1019.67 1019.22 1018.93 1018.88 1019.11 1019.64 1020.41 1021.34 1022.33 1023.26 1024.05 1024.65 1025.03 1025.22 1025.27 1025.24 1025.20 1025.19 1025.25 1025.37 1025.53 1025.70 1025.84 1025.93 1025.94 1025.88 1025.77 1025.62 1025.46 1025.31
1017.58 1017.70 1017.87 1018.12 1018.47 1018.94 1019.47 1020.02 1020.49 1020.81 1020.91 1020.75 1020.36 1019.80 1019.17 1018.59 1018.19 1018.06 1018.27 1018.81 1019.63 1020.65 1021.74 1022.79 1023.71 1024.42 1024.91 1025.20 1025.33 1025.37 1025.38 1025.42 1025.51 1025.66 1025.84 1026.03 1026.19 1026.30 1026.34 1026.32 1026.25 1026.15 1026.03 1025.92
1017.28 1017.36 1017.52 1017.79 1018.20 1018.72 1019.33 1019.93 1020.44 1020.77 1020.84 1020.62 1020.15 1019.48 1018.74 1018.06 1017.57 1017.38 1017.56 1018.09 1018.94 1020.00 1021.17 1022.30 1023.30 1024.11 1024.69 1025.06 1025.27 1025.39 1025.46 1025.56 1025.69 1025.88 1026.09 1026.31 1026.50 1026.64 1026.72 1026.75 1026.72 1026.67 1026.59 1026.52
1016.94 1017.00 1017.16 1017.46 1017.90 1018.48 1019.12 1019.76 1020.29 1020.61 1020.65 1020.40 1019.87 1019.14 1018.34 1017.60 1017.07 1016.85 1017.00 1017.52 1018.37 1019.45 1020.64 1021.82 1022.87 1023.74 1024.39 1024.84 1025.13 1025.31 1025.46 1025.61 1025.80 1026.03 1026.28 1026.53 1026.76 1026.95 1027.07 1027.14 1027.16 1027.15 1027.12 1027.07
1016.64 1016.70 1016.86 1017.16 1017.61 1018.19 1018.84 1019.47 1019.98 1020.28 1020.30 1020.02 1019.47 1018.73 1017.91 1017.17 1016.64 1016.41 1016.55 1017.07 1017.91 1018.98 1020.16 1021.34 1022.41 1023.32 1024.02 1024.53 1024.89 1025.15 1025.37 1025.59 1025.83 1026.11 1026.41 1026.70 1026.97 1027.19 1027.35 1027.47 1027.54 1027.57 1027.57 1027.55
1016.42 1016.46 1016.61 1016.90 1017.32 1017.86 1018.46 1019.03 1019.48 1019.73 1019.72 1019.42 1018.88 1018.16 1017.39 1016.69 1016.20 1016.00 1016.15 1016.66 1017.47 1018.51 1019.66 1020.82 1021.89 1022.80 1023.54 1024.11 1024.54 1024.88 1025.18 1025.47 1025.78 1026.11 1026.45 1026.79 1027.09 1027.35 1027.55 1027.70 1027.81 1027.89 1027.93 1027.94
1016.28 1016.31 1016.44 1016.67 1017.03 1017.48 1017.98 1018.44 1018.80 1018.97 1018.91 1018.60 1018.08 1017.42 1016.72 1016.10 1015.67 1015.52 1015.69 1016.19 1016.97 1017.96 1019.06 1020.18 1021.22 1022.14 1022.91 1023.53 1024.04 1024.47 1024.86 1025.24 1025.62 1026.01 1026.40 1026.77 1027.11 1027.40 1027.64 1027.84 1027.99 1028.11 1028.19 1028.25
1016.22 1016.24 1016.32 1016.48 1016.74 1017.06 1017.41 1017.73 1017.95 1018.02 1017.90 1017.58 1017.08 1016.49 1015.87 1015.35 1015.00 1014.90 1015.10 1015.58 1016.32 1017.25 1018.28 1019.34 1020.35 1021.28 1022.08 1022.77 1023.37 1023.90 1024.39 1024.86 1025.33 1025.80 1026.24 1026.66 1027.03 1027.36 1027.63 1027.87 1028.07 1028.23 1028.37 1028.49
1016.23 1016.22 1016.24 1016.32 1016.44 1016.61 1016.79 1016.95 1017.02 1016.97 1016.77 1016.43 1015.96 1015.43 1014.90 1014.46 1014.19 1014.14 1014.34 1014.80 1015.48 1016.33 1017.29 1018.28 1019.26 1020.19 1021.03 1021.80 1022.50 1023.14 1023.76 1024.34 1024.91 1025.45 1025.96 1026.43 1026.85 1027.21 1027.53 1027.81 1028.06 1028.29 1028.49 1028.67
1016.26 1016.21 1016.17 1016.15 1016.15 1016.16 1016.17 1016.15 1016.07 1015.91 1015.64 1015.27 1014.82 1014.34 1013.88 1013.51 1013.29 1013.27 1013.46 1013.86 1014.47 1015.23 1016.10 1017.03 1017.97 1018.90 1019.79 1020.64 1021.45 1022.23 1022.97 1023.69 1024.36 1025.00 1025.58 1026.11 1026.58 1026.99 1027.36 1027.69 1028.00 1028.29 1028.56 1028.82
1016.28 1016.20 1016.09 1015.98 1015.86 1015.73 1015.59 1015.42 1015.21 1014.94 1014.60 1014.21 1013.78 1013.34 1012.94 1012.62 1012.42 1012.39 1012.54 1012.88 1013.38 1014.04 1014.81 1015.66 1016.57 1017.50 1018.44 1019.38 1020.30 1021.21 1022.09 1022.93 1023.72 1024.45 1025.12 1025.71 1026.24 1026.71 1027.13 1027.52 1027.89 1028.25 1028.60 1028.93
1016.27 1016.14 1015.98 1015.78 1015.57 1015.33 1015.08 1014.80 1014.49 1014.15 1013.77 1013.37 1012.96 1012.55 1012.18 1011.89 1011.70 1011.64 1011.72 1011.96 1012.35 1012.89 1013.55 1014.32 1015.18 1016.11 1017.08 1018.10 1019.12 1020.15 1021.16 1022.12 1023.02 1023.85 1024.60 1025.27 1025.86 1026.39 1026.87 1027.32 1027.76 1028.19 1028.61 1029.00
1016.21 1016.03 1015.81 1015.56 1015.28 1014.97 1014.65 1014.31 1013.95 1013.58 1013.20 1012.81 1012.42 1012.05 1011.71 1011.43 1011.22 1011.11 1011.12 1011.25 1011.51 1011.92 1012.46 1013.14 1013.94 1014.85 1015.84 1016.91 1018.02 1019.14 1020.25 1021.32 1022.32 1023.23 1024.06 1024.79 1025.45 1026.04 1026.59 1027.11 1027.61 1028.10 1028.58 1029.04
1016.09 1015.85 1015.59 1015.30 1014.98 1014.65 1014.30 1013.94 1013.58 1013.23 1012.87 1012.52 1012.18 1011.85 1011.54 1011.27 1011.04 1010.88 1010.80 1010.82 1010.96 1011.23 1011.65 1012.23 1012.96 1013.82 1014.81 1015.90 1017.06 1018.25 1019.43 1020.57 1021.64 1022.62 1023.51 1024.31 1025.03 1025.68 1026.29 1026.87 1027.44 1027.99 1028.52 1029.02
1015.92 1015.63 1015.32 1015.00 1014.67 1014.33 1014.00 1013.67 1013.35 1013.04 1012.75 1012.46 1012.18 1011.91 1011.63 1011.37 1011.13 1010.92 1010.76 1010.68 1010.70 1010.85 1011.16 1011.63 1012.27 1013.08 1014.04 1015.12 1016.28 1017.50 1018.71 1019.89 1021.01 1022.04 1022.98 1023.83 1024.60 1025.31 1025.98 1026.62 1027.24 1027.84 1028.42 1028.96
1015.70 1015.36 1015.02 1014.68 1014.35 1014.03 1013.72 1013.44 1013.18 1012.95 1012.73 1012.53 1012.32 1012.11 1011.88 1011.64 1011.39 1011.15 1010.93 1010.77 1010.70 1010.74 1010.94 1011.31 1011.86 1012.60 1013.50 1014.54 1015.68 1016.88 1018.10 1019.28 1020.42 1021.47 1022.44 1023.33 1024.15 1024.91 1025.64 1026.33 1027.01 1027.66 1028.28 1028.86
1015.47 1015.07 1014.69 1014.33 1014.01 1013.71 1013.45 1013.23 1013.04 1012.88 1012.74 1012.62 1012.49 1012.34 1012.16 1011.95 1011.71 1011.45 1011.20 1010.98 1010.83 1010.79 1010.90 1011.18 1011.65 1012.31 1013.14 1014.11 1015.21 1016.37 1017.55 1018.72 1019.85 1020.91 1021.90 1022.82 1023.68 1024.49 1025.26 1026.01 1026.73 1027.43 1028.09 1028.70
1015.21 1014.76 1014.35 1013.99 1013.66 1013.39 1013.17 1012.99 1012.86 1012.77 1012.70 1012.64 1012.57 1012.48 1012.35 1012.17 1011.95 1011.69 1011.42 1011.18 1010.98 1010.89 1010.93 1011.14 1011.53 1012.11 1012.86 1013.77 1014.79 1015.90 1017.04 1018.17 1019.28 1020.33 1021.33 1022.27 1023.16 1024.01 1024.83 1025.63 1026.40 1027.14 1027.84 1028.48
1014.93 1014.45 1014.01 1013.64 1013.32 1013.06 1012.86 1012.72 1012.63 1012.58 1012.55 1012.54 1012.52 1012.46 1012.37 1012.22 1012.01 1011.76 1011.50 1011.24 1011.02 1010.90 1010.89 1011.05 1011.38 1011.90 1012.58 1013.42 1014.38 1015.42 1016.51 1017.60 1018.68 1019.72 1020.72 1021.68 1022.60 1023.49 1024.35 1025.19 1026.01 1026.79 1027.52 1028.19
1014.59 1014.09 1013.65 1013.27 1012.96 1012.71 1012.53 1012.40 1012.33 1012.29 1012.29 1012.29 1012.28 1012.24 1012.16 1012.02 1011.83 1011.60 1011.34 1011.08 1010.87 1010.73 1010.71 1010.84 1011.13 1011.59 1012.22 1013.00 1013.90 1014.88 1015.92 1016.98 1018.03 1019.06 1020.06 1021.03 1021.97 1022.90 1023.79 1024.68 1025.53 1026.34 1027.11 1027.81
1014.14 1013.65 1013.23 1012.87 1012.57 1012.33 1012.16 1012.03 1011.96 1011.92 1011.90 1011.88 1011.86 1011.81 1011.73 1011.59 1011.40 1011.18 1010.93 1010.69 1010.48 1010.35 1010.33 1010.44 1010.71 1011.15 1011.74 1012.47 1013.33 1014.27 1015.26 1016.29 1017.32 1018.34 1019.34 1020.32 1021.28 1022.23 1023.16 1024.07 1024.95 1025.79 1026.59 1027.31
Thickness
5736 5730 5720 5720 5723 5721 5717 5711 5708 5712 5718 5714 5712 5712 5716 5719 5717 5716 5717 5717 5716 5716 5718 5718 5718 5718 5717 5715 5715 5714 5712 5710 5709 5708 5706 5704 5703 5702 5701 5700 5700 5700 5700 5701
5725 5717 5720 5721 5719 5715 5712 5706 5705 5709 5713 5710 5708 5709 5715 5716 5713 5714 5714 5714 5714 5713 5713 5712 5713 5713 5712 5711 5710 5709 5708 5706 5705 5703 5703 5700 5699 5698 5697 5695 5694 5695 5695 5696
5715 5715 5718 5714 5710 5707 5706 5703 5703 5701 5704 5707 5704 5703 5709 5712 5713 5712 5712 5712 5711 5710 5709 5708 5707 5707 5707 5706 5705 5704 5703 5701 5699 5698 5697 5696 5694 5693 5692 5690 5690 5690 5690 5690
5711 5713 5710 5707 5704 5704 5698 5705 5702 5699 5696 5696 5697 5692 5705 5708 5706 5705 5706 5707 5707 5706 5706 5704 5703 5701 5701 5701 5701 5699 5698 5696 5695 5693 5691 5689 5687 5686 5686 5686 5686 5686 5685 5685
5704 5705 5703 5699 5700 5701 5698 5700 5699 5696 5694 5691 5693 5689 5700 5704 5698 5700 5702 5702 5703 5703 5702 5699 5698 5696 5695 5695 5693 5693 5692 5690 5689 5687 5685 5683 5682 5681 5682 5681 5681 5681 5680 5680
5703 5705 5703 5700 5700 5699 5696 5695 5693 5692 5690 5679 5688 5684 5689 5696 5694 5696 5698 5698 5698 5697 5696 5694 5693 5691 5688 5687 5686 5685 5685 5683 5682 5681 5680 5678 5676 5675 5675 5674 5674 5674 5674 5674
5693 5696 5699 5698 5691 5691 5693 5687 5678 5676 5675 5679 5685 5680 5684 5694 5694 5693 5692 5692 5692 5691 5689 5687 5685 5683 5681 5680 5679 5679 5678 5677 5676 5674 5674 5673 5672 5670 5669 5668 5668 5668 5668 5668
5684 5684 5690 5692 5690 5686 5688 5686 5673 5665 5669 5677 5678 5677 5686 5689 5689 5689 5688 5687 5685 5684 5682 5680 5678 5676 5674 5672 5671 5671 5671 5670 5670 5668 5668 5667 5666 5664 5663 5662 5662 5662 5662 5662
5682 5680 5686 5686 5687 5687 5680 5681 5683 5674 5671 5666 5677 5682 5684 5684 5681 5680 5680 5679 5678 5676 5675 5673 5671 5669 5667 5665 5664 5664 5665 5664 5664 5663 5662 5660 5659 5657 5656 5656 5655 5655 5655 5655
5682 5673 5677 5678 5680 5677 5679 5678 5672 5666 5657 5657 5668 5672 5675 5673 5672 5673 5672 5671 5670 5669 5668 5666 5664 5662 5661 5659 5658 5659 5658 5658 5657 5656 5655 5653 5652 5650 5649 5648 5647 5647 5647 5646
5677 5670 5668 5670 5669 5669 5667 5665 5666 5666 5663 5655 5656 5668 5677 5673 5669 5667 5666 5665 5663 5662 5660 5657 5656 5655 5654 5653 5652 5651 5651 5651 5650 5649 5647 5645 5643 5642 5641 5640 5639 5638 5638 5638
5669 5667 5663 5666 5668 5667 5666 5665 5661 5653 5654 5655 5653 5661 5673 5669 5666 5662 5660 5658 5656 5653 5651 5648 5648 5647 5646 5646 5645 5645 5644 5643 5642 5641 5639 5638 5636 5634 5633 5632 5630 5630 5630 5630
5661 5659 5653 5655 5655 5656 5656 5655 5654 5654 5652 5649 5644 5654 5663 5662 5658 5655 5653 5650 5648 5645 5643 5642 5640 5639 5638 5638 5637 5636 5636 5635 5633 5632 5632 5630 5629 5627 5625 5624 5622 5621 5621 5621
5657 5655 5652 5648 5653 5652 5647 5645 5644 5644 5643 5646 5648 5651 5653 5650 5647 5646 5644 5642 5641 5639 5637 5635 5632 5631 5631 5630 5629 5628 5628 5627 5626 5624 5624 5622 5620 5619 5617 5615 5613 5612 5611 5611
5651 5648 5649 5648 5646 5645 5643 5642 5640 5639 5643 5641 5647 5645 5648 5644 5640 5638 5637 5635 5633 5631 5628 5626 5625 5624 5623 5622 5621 5621 5619 5619 5618 5617 5616 5614 5611 5609 5607 5605 5603 5602 5601 5600
5644 5641 5640 5638 5637 5636 5635 5638 5638 5636 5637 5637 5637 5638 5643 5640 5636 5632 5630 5628 5626 5623 5620 5617 5616 5616 5616 5614 5614 5613 5612 5611 5610 5609 5608 5605 5603 5601 5598 5596 5594 5592 5591 5590
5635 5634 5631 5633 5631 5627 5630 5637 5635 5632 5633 5631 5628 5634 5633 5628 5626 5624 5623 5620 5619 5616 5612 5610 5609 5608 5608 5607 5606 5605 5605 5605 5603 5602 5600 5597 5594 5591 5589 5586 5584 5582 5581 5579
5629 5627 5625 5624 5620 5614 5635 5635 5631 5626 5627 5628 5627 5626 5624 5622 5620 5618 5616 5613 5611 5609 5606 5603 5601 5600 5600 5599 5599 5598 5598 5596 5595 5593 5591 5589 5585 5583 5580 5577 5575 5572 5571 5569
5624 5620 5616 5615 5614 5622 5625 5625 5622 5618 5619 5622 5619 5617 5617 5614 5612 5612 5609 5606 5603 5601 5599 5596 5594 5592 5592 5591 5591 5590 5589 5588 5586 5585 5582 5580 5577 5574 5571 5568 5565 5563 5560 5559
5613 5615 5612 5609 5604 5608 5621 5620 5617 5612 5612 5616 5613 5610 5608 5605 5604 5605 5601 5597 5594 5592 5590 5588 5586 5585 5584 5583 5582 5582 5581 5579 5577 5575 5574 5572 5569 5566 5562 5559 5557 5554 5551 5549
5605 5603 5604 5605 5603 5613 5615 5610 5607 5600 5607 5608 5607 5604 5601 5599 5600 5597 5592 5588 5586 5583 5581 5579 5577 5576 5575 5574 5574 5574 5572 5570 5568 5565 5564 5562 5559 5557 5554 5550 5547 5544 5542 5540
5607 5603 5601 5600 5596 5603 5604 5601 5600 5603 5603 5601 5598 5597 5594 5592 5588 5585 5582 5579 5577 5575 5572 5571 5569 5568 5566 5565 5565 5565 5563 5560 5557 5556 5554 5551 5549 5547 5544 5541 5538 5536 5534 5532
5601 5603 5603 5600 5601 5601 5598 5596 5596 5595 5594 5593 5590 5589 5585 5581 5578 5576 5573 5571 5569 5567 5565 5563 5561 5559 5557 5556 5555 5555 5552 5549 5548 5546 5544 5541 5539 5537 5534 5532 5530 5527 5526 5524
5594 5589 5590 5591 5595 5593 5590 5589 5587 5586 5585 5584 5582 5579 5576 5573 5570 5567 5565 5562 5560 5558 5557 5554 5552 5550 5549 5547 5545 5544 5542 5540 5539 5537 5535 5532 5530 5527 5525 5523 5521 5519 5517 5516
5587 5582 5583 5584 5587 5585 5584 5581 5579 5577 5576 5574 5571 5568 5566 5563 5561 5559 5557 5554 5552 5550 5548 5546 5544 5542 5540 5537 5536 5534 5532 5531 5530 5529 5526 5523 5520 5518 5516 5514 5511 5509 5508 5506
5580 5578 5577 5581 5582 5579 5578 5575 5571 5568 5567 5565 5562 5559 5557 5555 5553 5551 5548 5546 5544 5542 5540 5537 5536 5533 5531 5529 5527 5525 5523 5522 5521 5520 5518 5514 5512 5509 5506 5504 5502 5498 5497 5495